| time (UTC) | temp F | wind direction | speed knots | gust knots | rain 1hr in | rain 24hr in | rain mn in | humidity % | barometer mb |
| 20260505101503 | 60 | 216 | 2.6 | 6.1 | 0.00 | 0.00 | 0.00 | 74 | 992.3 |
| 20260505100005 | 61 | 217 | 3.5 | 8.7 | 0.00 | 0.00 | 0.00 | 74 | 992.2 |
| 20260505094509 | 61 | 258 | 1.7 | 10.4 | 0.00 | 0.00 | 0.00 | 74 | 992.2 |
| 20260505091503 | 61 | 145 | 1.7 | 8.7 | 0.00 | 0.00 | 0.00 | 74 | 992.1 |
| 20260505090006 | 61 | 206 | 2.6 | 7.8 | 0.00 | 0.00 | 0.00 | 73 | 992.2 |
| 20260505084501 | 61 | 214 | 0.9 | 8.7 | 0.00 | 0.00 | 0.00 | 73 | 992.0 |
| 20260505081503 | 61 | 136 | 0.9 | 7.0 | 0.00 | 0.00 | 0.00 | 72 | 992.2 |
| 20260505080002 | 62 | 147 | 0.9 | 6.1 | 0.00 | 0.00 | 0.00 | 71 | 992.4 |
| 20260505070000 | 63 | 285 | 3.5 | 8.7 | 0.00 | 0.00 | 0.00 | 67 | 993.1 |
| 20260505063004 | 63 | 301 | 3.5 | 8.7 | 0.00 | 0.00 | 0.00 | 68 | 992.9 |
| 20260505054504 | 64 | 170 | 0.0 | 3.5 | 0.00 | 0.00 | 0.00 | 67 | 993.3 |
| 20260505053000 | 64 | 110 | 0.0 | 4.3 | 0.00 | 0.00 | 0.00 | 66 | 993.5 |
| 20260505051500 | 64 | 200 | 0.0 | 2.6 | 0.00 | 0.00 | 0.00 | 65 | 993.5 |
| 20260505041501 | 66 | 210 | 0.9 | 7.0 | 0.00 | 0.00 | 0.00 | 61 | 993.1 |
| 20260505040004 | 66 | 231 | 4.3 | 7.8 | 0.00 | 0.00 | 0.00 | 61 | 993.1 |
| 20260505034510 | 66 | 207 | 2.6 | 7.8 | 0.00 | 0.00 | 0.00 | 61 | 993.1 |
| 20260505033001 | 67 | 251 | 1.7 | 6.1 | 0.00 | 0.00 | 0.00 | 61 | 993.2 |
| 20260505031502 | 67 | 152 | 0.9 | 5.2 | 0.00 | 0.00 | 0.00 | 61 | 993.0 |
| 20260505030004 | 67 | 172 | 0.9 | 4.3 | 0.00 | 0.00 | 0.00 | 60 | 993.0 |
| 20260505024500 | 68 | 194 | 0.0 | 5.2 | 0.00 | 0.00 | 0.00 | 60 | 992.9 |
| 20260505023002 | 68 | 206 | 1.7 | 5.2 | 0.00 | 0.00 | 0.00 | 59 | 992.9 |
| 20260505021502 | 69 | 138 | 0.0 | 3.5 | 0.00 | 0.00 | 0.00 | 58 | 993.0 |
| 20260505020006 | 69 | 154 | 0.0 | 2.6 | 0.00 | 0.00 | 0.00 | 56 | 992.9 |
| 20260505013005 | 70 | 198 | 0.9 | 7.0 | 0.00 | 0.00 | 0.00 | 54 | 992.8 |
| 20260505010002 | 72 | 220 | 2.6 | 8.7 | 0.00 | 0.00 | 0.00 | 52 | 992.8 |
| 20260505000003 | 75 | 214 | 3.5 | 8.7 | 0.00 | 0.00 | 0.00 | 47 | 992.4 |
| 20260504234504 | 75 | 222 | 7.8 | 15.6 | 0.00 | 0.00 | 0.00 | 48 | 992.5 |
| 20260504233004 | 76 | 208 | 9.6 | 15.6 | 0.00 | 0.00 | 0.00 | 47 | 992.5 |
| 20260504230006 | 76 | 214 | 9.6 | 16.5 | 0.00 | 0.00 | 0.00 | 47 | 992.5 |
| 20260504224507 | 75 | 238 | 9.6 | 20.9 | 0.00 | 0.00 | 0.00 | 46 | 992.7 |
| 20260504221501 | 77 | 207 | 11.3 | 17.4 | 0.00 | 0.00 | 0.00 | 43 | 992.7 |
| 20260504220003 | 77 | 210 | 9.6 | 18.2 | 0.00 | 0.00 | 0.00 | 47 | 992.7 |
| 20260504214501 | 77 | 228 | 14.8 | 22.6 | 0.00 | 0.00 | 0.00 | 45 | 992.6 |
| 20260504213009 | 77 | 218 | 11.3 | 19.1 | 0.00 | 0.00 | 0.00 | 44 | 992.9 |
| 20260504210002 | 76 | 215 | 12.2 | 20.0 | 0.00 | 0.00 | 0.00 | 44 | 993.1 |
| 20260504193003 | 76 | 213 | 12.2 | 19.1 | 0.00 | 0.00 | 0.00 | 48 | 994.2 |
| 20260504180007 | 75 | 222 | 8.7 | 17.4 | 0.00 | 0.00 | 0.00 | 57 | 995.0 |
| 20260504173002 | 75 | 199 | 15.6 | 19.1 | 0.00 | 0.00 | 0.00 | 54 | 995.5 |